Year,Month,Day,Hour,Minute,Value (Times are PST for temperature in C)
2010,07,17,00,00,13.90
2010,07,17,00,01,13.90
2010,07,17,00,05,13.90
2010,07,17,00,06,13.90
2010,07,17,00,07,13.90
2010,07,17,00,08,13.90
2010,07,17,00,09,13.90
2010,07,17,00,10,13.90
2010,07,17,00,11,13.90
2010,07,17,00,12,13.90
2010,07,17,00,13,13.80
2010,07,17,00,14,13.80
2010,07,17,00,15,13.80
2010,07,17,00,16,13.80
2010,07,17,00,17,13.70
2010,07,17,00,18,13.70
2010,07,17,00,19,13.70
2010,07,17,00,20,13.70
2010,07,17,00,21,13.60
2010,07,17,00,22,13.60
2010,07,17,00,23,13.70
2010,07,17,00,24,13.70
2010,07,17,00,25,13.70
2010,07,17,00,26,13.70
2010,07,17,00,27,13.70
2010,07,17,00,28,13.70
2010,07,17,00,29,13.70
2010,07,17,00,30,13.70
2010,07,17,00,31,13.70
2010,07,17,00,32,13.70
2010,07,17,00,33,13.70
2010,07,17,00,34,13.80
2010,07,17,00,35,13.80
2010,07,17,00,36,13.90
2010,07,17,00,37,13.90
2010,07,17,00,38,13.90
2010,07,17,00,39,13.90
2010,07,17,00,40,13.90
2010,07,17,00,41,13.90
2010,07,17,00,42,13.80
2010,07,17,00,43,13.80
2010,07,17,00,44,13.80
2010,07,17,00,45,13.80
2010,07,17,00,46,13.90
2010,07,17,00,47,13.90
2010,07,17,00,48,13.90
2010,07,17,00,49,13.90
2010,07,17,00,50,13.90
2010,07,17,00,51,13.90
2010,07,17,00,52,13.90
2010,07,17,00,53,13.90
2010,07,17,00,54,13.90
2010,07,17,00,55,13.90
2010,07,17,00,56,13.90
2010,07,17,00,57,14.00
2010,07,17,00,58,14.00
2010,07,17,00,59,14.00
2010,07,17,01,00,14.00
2010,07,17,01,01,13.90
2010,07,17,01,02,13.90
2010,07,17,01,03,13.90
2010,07,17,01,04,14.00
2010,07,17,01,05,14.00
2010,07,17,01,06,14.00
2010,07,17,01,07,14.00
2010,07,17,01,08,14.00
2010,07,17,01,09,13.90
2010,07,17,01,10,13.90
2010,07,17,01,11,13.90
2010,07,17,01,12,13.90
2010,07,17,01,13,13.90
2010,07,17,01,14,13.90
2010,07,17,01,15,13.90
2010,07,17,01,16,13.90
2010,07,17,01,17,13.90
2010,07,17,01,18,13.90
2010,07,17,01,19,13.90
2010,07,17,01,20,13.90
2010,07,17,01,21,13.90
2010,07,17,01,22,13.80
2010,07,17,01,23,13.90
2010,07,17,01,24,13.90
2010,07,17,01,25,13.90
2010,07,17,01,26,13.90
2010,07,17,01,27,13.90
2010,07,17,01,28,13.80
2010,07,17,01,29,13.80
2010,07,17,01,30,13.80
2010,07,17,01,31,13.80
2010,07,17,01,32,13.80
2010,07,17,01,33,13.80
2010,07,17,01,34,13.80
2010,07,17,01,35,13.80
2010,07,17,01,36,13.80
2010,07,17,01,37,13.70
2010,07,17,01,38,13.70
2010,07,17,01,39,13.70
2010,07,17,01,40,13.70
2010,07,17,01,41,13.70
2010,07,17,01,42,13.70
2010,07,17,01,43,13.70
2010,07,17,01,44,13.70
2010,07,17,01,45,13.70
2010,07,17,01,46,13.70
2010,07,17,01,47,13.70
2010,07,17,01,48,13.60
2010,07,17,01,49,13.60
2010,07,17,01,50,13.60
2010,07,17,01,51,13.60
2010,07,17,01,52,13.60
2010,07,17,01,53,13.60
2010,07,17,01,54,13.60
2010,07,17,01,55,13.50
2010,07,17,01,56,13.60
2010,07,17,01,57,13.60
2010,07,17,01,58,13.60
2010,07,17,01,59,13.70
2010,07,17,02,00,13.70
2010,07,17,02,01,13.70
2010,07,17,02,02,13.70
2010,07,17,02,03,13.70
2010,07,17,02,04,13.70
2010,07,17,02,05,13.70
2010,07,17,02,06,13.70
2010,07,17,02,07,13.70
2010,07,17,02,08,13.70
2010,07,17,02,09,13.70
2010,07,17,02,10,13.70
2010,07,17,02,11,13.70
2010,07,17,02,12,13.70
2010,07,17,02,13,13.70
2010,07,17,02,14,13.70
2010,07,17,02,15,13.70
2010,07,17,02,16,13.70
2010,07,17,02,17,13.60
2010,07,17,02,18,13.60
2010,07,17,02,19,13.60
2010,07,17,02,20,13.50
2010,07,17,02,21,13.50
2010,07,17,02,22,13.40
2010,07,17,02,23,13.40
2010,07,17,02,24,13.40
2010,07,17,02,25,13.40
2010,07,17,02,26,13.40
2010,07,17,02,27,13.40
2010,07,17,02,28,13.40
2010,07,17,02,29,13.30
2010,07,17,02,30,13.30
2010,07,17,02,31,13.30
2010,07,17,02,32,13.30
2010,07,17,02,33,13.30
2010,07,17,02,34,13.30
2010,07,17,02,35,13.30
2010,07,17,02,36,13.20
2010,07,17,02,37,13.20
2010,07,17,02,38,13.20
2010,07,17,02,39,13.20
2010,07,17,02,40,13.10
2010,07,17,02,41,13.10
2010,07,17,02,42,13.10
2010,07,17,02,43,13.10
2010,07,17,02,44,13.00
2010,07,17,02,45,13.00
2010,07,17,02,46,12.90
2010,07,17,02,47,12.90
2010,07,17,02,48,12.90
2010,07,17,02,49,12.90
2010,07,17,02,50,12.90
2010,07,17,02,51,12.90
2010,07,17,02,52,12.80
2010,07,17,02,53,12.80
2010,07,17,02,54,12.80
2010,07,17,02,55,12.80
2010,07,17,02,56,12.80
2010,07,17,02,57,12.80
2010,07,17,02,58,12.80
2010,07,17,02,59,12.80
2010,07,17,03,00,12.80
2010,07,17,03,01,12.70
2010,07,17,03,02,12.70
2010,07,17,03,03,12.70
2010,07,17,03,04,12.70
2010,07,17,03,05,12.70
2010,07,17,03,06,12.70
2010,07,17,03,07,12.70
2010,07,17,03,08,12.60
2010,07,17,03,09,12.60
2010,07,17,03,10,12.50
2010,07,17,03,11,12.50
2010,07,17,03,12,12.40
2010,07,17,03,13,12.40
2010,07,17,03,14,12.30
2010,07,17,03,15,12.30
2010,07,17,03,16,12.30
2010,07,17,03,17,12.30
2010,07,17,03,18,12.30
2010,07,17,03,19,12.30
2010,07,17,03,20,12.30
2010,07,17,03,21,12.30
2010,07,17,03,22,12.30
2010,07,17,03,23,12.30
2010,07,17,03,24,12.30
2010,07,17,03,25,12.30
2010,07,17,03,26,12.30
2010,07,17,03,27,12.30
2010,07,17,03,28,12.30
2010,07,17,03,29,12.30
2010,07,17,03,30,12.30
2010,07,17,03,31,12.30
2010,07,17,03,32,12.30
2010,07,17,03,33,12.30
2010,07,17,03,34,12.30
2010,07,17,03,35,12.30
2010,07,17,03,36,12.30
2010,07,17,03,37,12.30
2010,07,17,03,38,12.20
2010,07,17,03,39,12.20
2010,07,17,03,40,12.20
2010,07,17,03,41,12.10
2010,07,17,03,42,12.10
2010,07,17,03,43,12.10
2010,07,17,03,44,12.10
2010,07,17,03,45,12.10
2010,07,17,03,46,12.10
2010,07,17,03,47,12.10
2010,07,17,03,48,12.10
2010,07,17,03,49,12.00
2010,07,17,03,50,12.00
2010,07,17,03,51,12.00
2010,07,17,03,52,12.00
2010,07,17,03,53,12.00
2010,07,17,03,54,12.00
2010,07,17,03,55,12.00
2010,07,17,03,56,12.00
2010,07,17,03,57,12.00
2010,07,17,03,58,12.00
2010,07,17,03,59,11.90
2010,07,17,04,00,12.00
2010,07,17,04,01,12.00
2010,07,17,04,02,12.00
2010,07,17,04,03,12.00
2010,07,17,04,04,11.90
2010,07,17,04,05,11.90
2010,07,17,04,06,11.90
2010,07,17,04,07,11.90
2010,07,17,04,08,11.90
2010,07,17,04,09,11.90
2010,07,17,04,10,11.90
2010,07,17,04,11,11.90
2010,07,17,04,12,11.90
2010,07,17,04,13,11.90
2010,07,17,04,14,11.90
2010,07,17,04,15,11.80
2010,07,17,04,16,11.80
2010,07,17,04,17,11.80
2010,07,17,04,18,11.80
2010,07,17,04,19,11.80
2010,07,17,04,20,11.80
2010,07,17,04,21,11.80
2010,07,17,04,22,11.80
2010,07,17,04,23,11.70
2010,07,17,04,24,11.70
2010,07,17,04,25,11.70
2010,07,17,04,26,11.70
2010,07,17,04,27,11.70
2010,07,17,04,28,11.70
2010,07,17,04,29,11.70
2010,07,17,04,30,11.70
2010,07,17,04,31,11.70
2010,07,17,04,32,11.70
2010,07,17,04,33,11.70
2010,07,17,04,34,11.70
2010,07,17,04,35,11.70
2010,07,17,04,36,11.70
2010,07,17,04,37,11.60
2010,07,17,04,38,11.60
2010,07,17,04,39,11.60
2010,07,17,04,40,11.60
2010,07,17,04,41,11.60
2010,07,17,04,42,11.60
2010,07,17,04,43,11.50
2010,07,17,04,44,11.50
2010,07,17,04,45,11.50
2010,07,17,04,46,11.50
2010,07,17,04,47,11.50
2010,07,17,04,48,11.40
2010,07,17,04,49,11.40
2010,07,17,04,50,11.40
2010,07,17,04,51,11.40
2010,07,17,04,52,11.40
2010,07,17,04,53,11.40
2010,07,17,04,54,11.40
2010,07,17,04,55,11.40
2010,07,17,04,56,11.40
2010,07,17,04,57,11.30
2010,07,17,04,58,11.30
2010,07,17,04,59,11.30
2010,07,17,05,00,11.30
2010,07,17,05,01,11.30
2010,07,17,05,02,11.30
2010,07,17,05,03,11.20
2010,07,17,05,04,11.20
2010,07,17,05,05,11.20
2010,07,17,05,06,11.20
2010,07,17,05,07,11.20
2010,07,17,05,08,11.20
2010,07,17,05,09,11.20
2010,07,17,05,10,11.10
2010,07,17,05,11,11.10
2010,07,17,05,12,11.20
2010,07,17,05,13,11.10
2010,07,17,05,14,11.20
2010,07,17,05,15,11.10
2010,07,17,05,16,11.10
2010,07,17,05,17,11.10
2010,07,17,05,18,11.10
2010,07,17,05,19,11.10
2010,07,17,05,20,11.10
2010,07,17,05,21,11.10
2010,07,17,05,22,11.10
2010,07,17,05,23,11.20
2010,07,17,05,24,11.10
2010,07,17,05,25,11.10
2010,07,17,05,26,11.10
2010,07,17,05,27,11.10
2010,07,17,05,28,11.10
2010,07,17,05,29,11.10
2010,07,17,05,30,11.10
2010,07,17,05,31,11.10
2010,07,17,05,32,11.10
2010,07,17,05,33,11.10
2010,07,17,05,34,11.00
2010,07,17,05,35,11.00
2010,07,17,05,36,11.00
2010,07,17,05,37,11.00
2010,07,17,05,38,11.00
2010,07,17,05,39,11.00
2010,07,17,05,40,11.00
2010,07,17,05,41,10.90
2010,07,17,05,42,10.90
2010,07,17,05,43,10.90
2010,07,17,05,44,10.90
2010,07,17,05,45,10.90
2010,07,17,05,46,10.90
2010,07,17,05,47,10.90
2010,07,17,05,48,10.90
2010,07,17,05,49,10.90
2010,07,17,05,50,10.90
2010,07,17,05,51,10.90
2010,07,17,05,52,10.90
2010,07,17,05,53,10.90
2010,07,17,05,54,10.90
2010,07,17,05,55,10.90
2010,07,17,05,56,10.90
2010,07,17,05,57,10.90
2010,07,17,05,58,10.90
2010,07,17,05,59,10.90
2010,07,17,06,00,10.90
2010,07,17,06,01,11.00
2010,07,17,06,02,11.00
2010,07,17,06,03,11.00
2010,07,17,06,04,11.00
2010,07,17,06,05,11.10
2010,07,17,06,06,11.10
2010,07,17,06,07,11.10
2010,07,17,06,08,11.10
2010,07,17,06,09,11.20
2010,07,17,06,10,11.20
2010,07,17,06,11,11.20
2010,07,17,06,12,11.20
2010,07,17,06,13,11.20
2010,07,17,06,14,11.30
2010,07,17,06,15,11.30
2010,07,17,06,16,11.30
2010,07,17,06,17,11.30
2010,07,17,06,18,11.40
2010,07,17,06,19,11.40
2010,07,17,06,20,11.40
2010,07,17,06,21,11.50
2010,07,17,06,22,11.50
2010,07,17,06,23,11.60
2010,07,17,06,24,11.60
2010,07,17,06,25,11.60
2010,07,17,06,26,11.70
2010,07,17,06,27,11.80
2010,07,17,06,28,11.80
2010,07,17,06,29,11.80
2010,07,17,06,30,11.90
2010,07,17,06,31,11.90
2010,07,17,06,32,12.00
2010,07,17,06,33,12.00
2010,07,17,06,34,12.10
2010,07,17,06,35,12.10
2010,07,17,06,36,12.20
2010,07,17,06,37,12.20
2010,07,17,06,38,12.30
2010,07,17,06,39,12.30
2010,07,17,06,40,12.30
2010,07,17,06,41,12.30
2010,07,17,06,42,12.40
2010,07,17,06,43,12.40
2010,07,17,06,44,12.50
2010,07,17,06,45,12.60
2010,07,17,06,46,12.60
2010,07,17,06,47,12.70
2010,07,17,06,48,12.70
2010,07,17,06,49,12.80
2010,07,17,06,50,12.80
2010,07,17,06,51,12.80
2010,07,17,06,52,12.90
2010,07,17,06,53,12.90
2010,07,17,06,54,13.00
2010,07,17,06,55,13.00
2010,07,17,06,56,13.10
2010,07,17,06,57,13.10
2010,07,17,06,58,13.20
2010,07,17,06,59,13.20
2010,07,17,07,00,13.20
2010,07,17,07,01,13.20
2010,07,17,07,02,13.30
2010,07,17,07,03,13.30
2010,07,17,07,04,13.40
2010,07,17,07,05,13.40
2010,07,17,07,06,13.50
2010,07,17,07,07,13.60
2010,07,17,07,08,13.60
2010,07,17,07,09,13.70
2010,07,17,07,10,13.70
2010,07,17,07,11,13.80
2010,07,17,07,12,13.80
2010,07,17,07,13,13.90
2010,07,17,07,14,13.90
2010,07,17,07,15,13.90
2010,07,17,07,16,13.90
2010,07,17,07,17,13.90
2010,07,17,07,18,14.00
2010,07,17,07,19,14.00
2010,07,17,07,20,14.00
2010,07,17,07,21,14.00
2010,07,17,07,22,14.00
2010,07,17,07,23,14.10
2010,07,17,07,24,14.10
2010,07,17,07,25,14.10
2010,07,17,07,26,14.10
2010,07,17,07,27,14.10
2010,07,17,07,28,14.10
2010,07,17,07,29,14.10
2010,07,17,07,30,14.10
2010,07,17,07,31,14.10
2010,07,17,07,32,14.20
2010,07,17,07,33,14.20
2010,07,17,07,34,14.30
2010,07,17,07,35,14.30
2010,07,17,07,36,14.30
2010,07,17,07,37,14.30
2010,07,17,07,38,14.30
2010,07,17,07,39,14.30
2010,07,17,07,40,14.30
2010,07,17,07,41,14.30
2010,07,17,07,42,14.30
2010,07,17,07,43,14.30
2010,07,17,07,44,14.20
2010,07,17,07,45,14.20
2010,07,17,07,46,14.20
2010,07,17,07,47,14.20
2010,07,17,07,48,14.30
2010,07,17,07,49,14.20
2010,07,17,07,50,14.30
2010,07,17,07,51,14.20
2010,07,17,07,52,14.20
2010,07,17,07,53,14.20
2010,07,17,07,54,14.10
2010,07,17,07,55,14.10
2010,07,17,07,56,14.10
2010,07,17,07,57,14.20
2010,07,17,07,58,14.20
2010,07,17,07,59,14.20
2010,07,17,08,00,14.20
2010,07,17,08,01,14.20
2010,07,17,08,02,14.20
2010,07,17,08,03,14.30
2010,07,17,08,04,14.30
2010,07,17,08,05,14.30
2010,07,17,08,06,14.30
2010,07,17,08,07,14.20
2010,07,17,08,08,14.20
2010,07,17,08,09,14.20
2010,07,17,08,10,14.20
2010,07,17,08,11,14.20
2010,07,17,08,12,14.20
2010,07,17,08,13,14.30
2010,07,17,08,14,14.30
2010,07,17,08,15,14.30
2010,07,17,08,16,14.40
2010,07,17,08,17,14.40
2010,07,17,08,18,14.50
2010,07,17,08,19,14.50
2010,07,17,08,20,14.50
2010,07,17,08,21,14.50
2010,07,17,08,22,14.60
2010,07,17,08,23,14.60
2010,07,17,08,24,14.60
2010,07,17,08,25,14.60
2010,07,17,08,26,14.70
2010,07,17,08,27,14.70
2010,07,17,08,28,14.70
2010,07,17,08,29,14.70
2010,07,17,08,30,14.70
2010,07,17,08,31,14.60
2010,07,17,08,32,14.60
2010,07,17,08,33,14.60
2010,07,17,08,34,14.60
2010,07,17,08,35,14.60
2010,07,17,08,36,14.60
2010,07,17,08,37,14.60
2010,07,17,08,38,14.60
2010,07,17,08,39,14.70
2010,07,17,08,40,14.70
2010,07,17,08,41,14.70
2010,07,17,08,42,14.70
2010,07,17,08,43,14.70
2010,07,17,08,44,14.80
2010,07,17,08,45,14.80
2010,07,17,08,46,14.80
2010,07,17,08,47,14.90
2010,07,17,08,48,14.90
2010,07,17,08,49,15.00
2010,07,17,08,50,15.00
2010,07,17,08,51,15.10
2010,07,17,08,52,15.10
2010,07,17,08,53,15.00
2010,07,17,08,54,15.00
2010,07,17,08,55,14.90
2010,07,17,08,56,14.90
2010,07,17,08,57,14.90
2010,07,17,08,58,14.90
2010,07,17,08,59,15.00
2010,07,17,09,00,15.10
2010,07,17,09,01,15.20
2010,07,17,09,02,15.30
2010,07,17,09,03,15.40
2010,07,17,09,04,15.40
2010,07,17,09,05,15.40
2010,07,17,09,06,15.40
2010,07,17,09,07,15.40
2010,07,17,09,08,15.50
2010,07,17,09,09,15.50
2010,07,17,09,10,15.40
2010,07,17,09,11,15.40
2010,07,17,09,12,15.30
2010,07,17,09,13,15.20
2010,07,17,09,14,15.10
2010,07,17,09,15,15.10
2010,07,17,09,16,15.10
2010,07,17,09,17,15.20
2010,07,17,09,18,15.30
2010,07,17,09,19,15.30
2010,07,17,09,20,15.30
2010,07,17,09,21,15.40
2010,07,17,09,22,15.50
2010,07,17,09,23,15.50
2010,07,17,09,24,15.50
2010,07,17,09,25,15.40
2010,07,17,09,26,15.40
2010,07,17,09,27,15.40
2010,07,17,09,28,15.30
2010,07,17,09,29,15.30
2010,07,17,09,30,15.30
2010,07,17,09,31,15.30
2010,07,17,09,32,15.40
2010,07,17,09,33,15.40
2010,07,17,09,34,15.40
2010,07,17,09,35,15.30
2010,07,17,09,36,15.30
2010,07,17,09,37,15.20
2010,07,17,09,38,15.30
2010,07,17,09,39,15.30
2010,07,17,09,40,15.40
2010,07,17,09,41,15.50
2010,07,17,09,42,15.60
2010,07,17,09,43,15.60
2010,07,17,09,44,15.70
2010,07,17,09,45,15.70
2010,07,17,09,46,15.70
2010,07,17,09,47,15.60
2010,07,17,09,48,15.70
2010,07,17,09,49,15.70
2010,07,17,09,50,15.80
2010,07,17,09,51,15.80
2010,07,17,09,52,15.90
2010,07,17,09,53,15.90
2010,07,17,09,54,15.90
2010,07,17,09,55,15.90
2010,07,17,09,56,15.90
2010,07,17,09,57,15.90
2010,07,17,09,58,15.90
2010,07,17,09,59,15.90
2010,07,17,10,00,16.00
2010,07,17,10,01,16.10
2010,07,17,10,02,16.10
2010,07,17,10,03,16.10
2010,07,17,10,04,16.10
2010,07,17,10,05,16.10
2010,07,17,10,06,16.20
2010,07,17,10,07,16.30
2010,07,17,10,08,16.30
2010,07,17,10,09,16.40
2010,07,17,10,10,16.40
2010,07,17,10,11,16.50
2010,07,17,10,12,16.50
2010,07,17,10,13,16.60
2010,07,17,10,14,16.50
2010,07,17,10,15,16.50
2010,07,17,10,16,16.50
2010,07,17,10,17,16.50
2010,07,17,10,18,16.30
2010,07,17,10,19,16.30
2010,07,17,10,20,16.20
2010,07,17,10,21,16.10
2010,07,17,10,22,16.10
2010,07,17,10,23,16.10
2010,07,17,10,24,16.20
2010,07,17,10,25,16.30
2010,07,17,10,26,16.40
2010,07,17,10,27,16.50
2010,07,17,10,28,16.50
2010,07,17,10,29,16.60
2010,07,17,10,30,16.70
2010,07,17,10,31,16.70
2010,07,17,10,32,16.70
2010,07,17,10,33,16.80
2010,07,17,10,34,16.90
2010,07,17,10,35,17.00
2010,07,17,10,36,17.10
2010,07,17,10,37,17.20
2010,07,17,10,38,17.20
2010,07,17,10,39,17.10
2010,07,17,10,40,17.00
2010,07,17,10,41,17.00
2010,07,17,10,42,17.00
2010,07,17,10,43,17.10
2010,07,17,10,44,17.00
2010,07,17,10,45,17.00
2010,07,17,10,46,17.00
2010,07,17,10,47,17.00
2010,07,17,10,48,17.10
2010,07,17,10,49,17.10
2010,07,17,10,50,17.20
2010,07,17,10,51,17.30
2010,07,17,10,52,17.40
2010,07,17,10,53,17.40
2010,07,17,10,54,17.30
2010,07,17,10,55,17.30
2010,07,17,10,56,17.30
2010,07,17,10,57,17.30
2010,07,17,10,58,17.30
2010,07,17,10,59,17.30
2010,07,17,11,00,17.30
2010,07,17,11,01,17.40
2010,07,17,11,02,17.40
2010,07,17,11,03,17.40
2010,07,17,11,04,17.50
2010,07,17,11,05,17.50
2010,07,17,11,06,17.50
2010,07,17,11,07,17.40
2010,07,17,11,08,17.40
2010,07,17,11,09,17.50
2010,07,17,11,10,17.50
2010,07,17,11,11,17.40
2010,07,17,11,12,17.40
2010,07,17,11,13,17.30
2010,07,17,11,14,17.30
2010,07,17,11,15,17.30
2010,07,17,11,16,17.30
2010,07,17,11,17,17.40
2010,07,17,11,18,17.40
2010,07,17,11,19,17.40
2010,07,17,11,20,17.40
2010,07,17,11,21,17.40
2010,07,17,11,22,17.40
2010,07,17,11,23,17.40
2010,07,17,11,24,17.40
2010,07,17,11,25,17.30
2010,07,17,11,26,17.30
2010,07,17,11,27,17.30
2010,07,17,11,28,17.30
2010,07,17,11,29,17.40
2010,07,17,11,30,17.50
2010,07,17,11,31,17.70
2010,07,17,11,32,17.70
2010,07,17,11,33,17.70
2010,07,17,11,34,17.70
2010,07,17,11,35,17.70
2010,07,17,11,36,17.70
2010,07,17,11,37,17.60
2010,07,17,11,38,17.50
2010,07,17,11,39,17.50
2010,07,17,11,40,17.40
2010,07,17,11,41,17.40
2010,07,17,11,42,17.50
2010,07,17,11,43,17.60
2010,07,17,11,44,17.70
2010,07,17,11,45,17.70
2010,07,17,11,46,17.70
2010,07,17,11,47,17.80
2010,07,17,11,48,17.90
2010,07,17,11,49,18.00
2010,07,17,11,50,18.20
2010,07,17,11,51,18.30
2010,07,17,11,52,18.40
2010,07,17,11,53,18.50
2010,07,17,11,54,18.60
2010,07,17,11,55,18.60
2010,07,17,11,56,18.60
2010,07,17,11,57,18.60
2010,07,17,11,58,18.50
2010,07,17,11,59,18.50
2010,07,17,12,00,18.50
2010,07,17,12,01,18.40
2010,07,17,12,02,18.50
2010,07,17,12,03,18.50
2010,07,17,12,04,18.50
2010,07,17,12,05,18.40
2010,07,17,12,06,18.40
2010,07,17,12,07,18.40
2010,07,17,12,08,18.40
2010,07,17,12,09,18.30
2010,07,17,12,10,18.20
2010,07,17,12,11,18.10
2010,07,17,12,12,18.00
2010,07,17,12,13,17.90
2010,07,17,12,14,17.80
2010,07,17,12,15,17.70
2010,07,17,12,16,17.70
2010,07,17,12,17,17.80
2010,07,17,12,18,17.80
2010,07,17,12,19,18.00
2010,07,17,12,20,18.10
2010,07,17,12,21,18.20
2010,07,17,12,22,18.20
2010,07,17,12,23,18.30
2010,07,17,12,24,18.30
2010,07,17,12,25,18.20
2010,07,17,12,26,18.10
2010,07,17,12,27,18.00
2010,07,17,12,28,18.00
2010,07,17,12,29,18.10
2010,07,17,12,30,18.30
2010,07,17,12,31,18.30
2010,07,17,12,32,18.50
2010,07,17,12,33,18.50
2010,07,17,12,34,18.60
2010,07,17,12,35,18.70
2010,07,17,12,36,18.70
2010,07,17,12,37,18.70
2010,07,17,12,38,18.80
2010,07,17,12,39,18.80
2010,07,17,12,40,18.90
2010,07,17,12,41,19.00
2010,07,17,12,42,19.10
2010,07,17,12,43,19.10
2010,07,17,12,44,19.20
2010,07,17,12,45,19.20
2010,07,17,12,46,19.10
2010,07,17,12,47,19.10
2010,07,17,12,48,19.00
2010,07,17,12,49,18.90
2010,07,17,12,50,19.00
2010,07,17,12,51,19.00
2010,07,17,12,52,19.10
2010,07,17,12,53,19.10
2010,07,17,12,54,19.10
2010,07,17,12,55,19.10
2010,07,17,12,56,19.10
2010,07,17,12,57,19.10
2010,07,17,12,58,19.10
2010,07,17,12,59,19.20
2010,07,17,13,00,19.20
2010,07,17,13,01,19.20
2010,07,17,13,02,19.30
2010,07,17,13,03,19.40
2010,07,17,13,04,19.40
2010,07,17,13,05,19.40
2010,07,17,13,06,19.30
2010,07,17,13,07,19.30
2010,07,17,13,08,19.30
2010,07,17,13,09,19.30
2010,07,17,13,10,19.30
2010,07,17,13,11,19.30
2010,07,17,13,12,19.30
2010,07,17,13,13,19.30
2010,07,17,13,14,19.40
2010,07,17,13,15,19.40
2010,07,17,13,16,19.50
2010,07,17,13,17,19.60
2010,07,17,13,18,19.70
2010,07,17,13,19,19.70
2010,07,17,13,20,19.80
2010,07,17,13,21,19.80
2010,07,17,13,22,19.80
2010,07,17,13,23,19.90
2010,07,17,13,24,19.90
2010,07,17,13,25,20.00
2010,07,17,13,26,20.10
2010,07,17,13,27,20.10
2010,07,17,13,28,20.20
2010,07,17,13,29,20.10
2010,07,17,13,30,20.10
2010,07,17,13,31,20.10
2010,07,17,13,32,20.10
2010,07,17,13,33,20.20
2010,07,17,13,34,20.30
2010,07,17,13,35,20.40
2010,07,17,13,36,20.40
2010,07,17,13,37,20.40
2010,07,17,13,38,20.30
2010,07,17,13,39,20.20
2010,07,17,13,40,20.00
2010,07,17,13,41,19.90
2010,07,17,13,42,19.80
2010,07,17,13,43,19.80
2010,07,17,13,44,19.80
2010,07,17,13,45,19.90
2010,07,17,13,46,19.90
2010,07,17,13,47,19.80
2010,07,17,13,48,19.70
2010,07,17,13,49,19.60
2010,07,17,13,50,19.50
2010,07,17,13,51,19.50
2010,07,17,13,52,19.50
2010,07,17,13,53,19.40
2010,07,17,13,54,19.50
2010,07,17,13,55,19.50
2010,07,17,13,56,19.60
2010,07,17,13,57,19.70
2010,07,17,13,58,19.60
2010,07,17,13,59,19.60
2010,07,17,14,00,19.60
2010,07,17,14,01,19.60
2010,07,17,14,02,19.50
2010,07,17,14,03,19.50
2010,07,17,14,04,19.60
2010,07,17,14,05,19.60
2010,07,17,14,06,19.70
2010,07,17,14,07,19.80
2010,07,17,14,08,19.90
2010,07,17,14,09,20.00
2010,07,17,14,10,20.00
2010,07,17,14,11,20.10
2010,07,17,14,12,20.00
2010,07,17,14,13,20.00
2010,07,17,14,14,20.00
2010,07,17,14,15,20.10
2010,07,17,14,16,20.10
2010,07,17,14,17,20.20
2010,07,17,14,18,20.20
2010,07,17,14,19,20.20
2010,07,17,14,20,20.20
2010,07,17,14,21,20.30
2010,07,17,14,22,20.30
2010,07,17,14,23,20.40
2010,07,17,14,24,20.50
2010,07,17,14,25,20.60
2010,07,17,14,26,20.60
2010,07,17,14,27,20.60
2010,07,17,14,28,20.60
2010,07,17,14,29,20.60
2010,07,17,14,30,20.50
2010,07,17,14,31,20.50
2010,07,17,14,32,20.50
2010,07,17,14,33,20.50
2010,07,17,14,34,20.60
2010,07,17,14,35,20.70
2010,07,17,14,36,20.70
2010,07,17,14,37,20.80
2010,07,17,14,38,20.80
2010,07,17,14,39,20.80
2010,07,17,14,40,20.80
2010,07,17,14,41,20.80
2010,07,17,14,42,20.80
2010,07,17,14,43,20.70
2010,07,17,14,44,20.70
2010,07,17,14,45,20.70
2010,07,17,14,46,20.70
2010,07,17,14,47,20.60
2010,07,17,14,48,20.60
2010,07,17,14,49,20.60
2010,07,17,14,50,20.50
2010,07,17,14,51,20.40
2010,07,17,14,52,20.30
2010,07,17,14,53,20.30
2010,07,17,14,54,20.20
2010,07,17,14,55,20.10
2010,07,17,14,56,20.00
2010,07,17,14,57,19.90
2010,07,17,14,58,19.80
2010,07,17,14,59,19.80
2010,07,17,15,00,19.80
2010,07,17,15,01,19.90
2010,07,17,15,02,20.10
2010,07,17,15,03,20.30
2010,07,17,15,04,20.40
2010,07,17,15,05,20.50
2010,07,17,15,06,20.40
2010,07,17,15,07,20.40
2010,07,17,15,08,20.50
2010,07,17,15,09,20.50
2010,07,17,15,10,20.50
2010,07,17,15,11,20.60
2010,07,17,15,12,20.60
2010,07,17,15,13,20.70
2010,07,17,15,14,20.70
2010,07,17,15,15,20.80
2010,07,17,15,16,20.90
2010,07,17,15,17,20.90
2010,07,17,15,18,20.90
2010,07,17,15,19,20.90
2010,07,17,15,20,20.90
2010,07,17,15,21,20.90
2010,07,17,15,22,21.00
2010,07,17,15,23,21.00
2010,07,17,15,24,20.90
2010,07,17,15,25,20.90
2010,07,17,15,26,20.90
2010,07,17,15,27,21.00
2010,07,17,15,28,21.00
2010,07,17,15,29,21.10
2010,07,17,15,30,21.20
2010,07,17,15,31,21.20
2010,07,17,15,32,21.20
2010,07,17,15,33,21.20
2010,07,17,15,34,21.10
2010,07,17,15,35,20.90
2010,07,17,15,36,20.80
2010,07,17,15,37,20.80
2010,07,17,15,38,20.80
2010,07,17,15,39,20.70
2010,07,17,15,40,20.80
2010,07,17,15,41,20.80
2010,07,17,15,42,20.80
2010,07,17,15,43,20.80
2010,07,17,15,44,20.90
2010,07,17,15,45,20.90
2010,07,17,15,46,20.90
2010,07,17,15,47,20.90
2010,07,17,15,48,21.00
2010,07,17,15,49,21.00
2010,07,17,15,50,21.10
2010,07,17,15,51,21.20
2010,07,17,15,52,21.30
2010,07,17,15,53,21.30
2010,07,17,15,54,21.40
2010,07,17,15,55,21.60
2010,07,17,15,56,21.70
2010,07,17,15,57,21.90
2010,07,17,15,58,22.10
2010,07,17,15,59,22.20
2010,07,17,16,00,22.40
2010,07,17,16,01,22.40
2010,07,17,16,02,22.50
2010,07,17,16,03,22.50
2010,07,17,16,04,22.70
2010,07,17,16,05,22.70
2010,07,17,16,06,22.70
2010,07,17,16,07,22.70
2010,07,17,16,08,22.70
2010,07,17,16,09,22.60
2010,07,17,16,10,22.60
2010,07,17,16,11,22.60
2010,07,17,16,12,22.60
2010,07,17,16,13,22.60
2010,07,17,16,14,22.70
2010,07,17,16,15,22.70
2010,07,17,16,16,22.80
2010,07,17,16,17,23.00
2010,07,17,16,18,23.10
2010,07,17,16,19,23.10
2010,07,17,16,20,23.10
2010,07,17,16,21,23.00
2010,07,17,16,22,22.90
2010,07,17,16,23,22.90
2010,07,17,16,24,22.90
2010,07,17,16,25,22.90
2010,07,17,16,26,22.90
2010,07,17,16,27,22.90
2010,07,17,16,28,22.80
2010,07,17,16,29,22.70
2010,07,17,16,30,22.60
2010,07,17,16,31,22.60
2010,07,17,16,32,22.50
2010,07,17,16,33,22.40
2010,07,17,16,34,22.40
2010,07,17,16,35,22.30
2010,07,17,16,36,22.30
2010,07,17,16,37,22.30
2010,07,17,16,38,22.50
2010,07,17,16,39,22.60
2010,07,17,16,40,22.70
2010,07,17,16,41,22.80
2010,07,17,16,42,22.70
2010,07,17,16,43,22.60
2010,07,17,16,44,22.50
2010,07,17,16,45,22.40
2010,07,17,16,46,22.30
2010,07,17,16,47,22.20
2010,07,17,16,48,22.20
2010,07,17,16,49,22.10
2010,07,17,16,50,22.10
2010,07,17,16,51,22.10
2010,07,17,16,52,22.00
2010,07,17,16,53,22.10
2010,07,17,16,54,22.10
2010,07,17,16,55,22.20
2010,07,17,16,56,22.20
2010,07,17,16,57,22.30
2010,07,17,16,58,22.40
2010,07,17,16,59,22.50
2010,07,17,17,00,22.50
2010,07,17,17,01,22.60
2010,07,17,17,02,22.60
2010,07,17,17,03,22.70
2010,07,17,17,04,22.70
2010,07,17,17,05,22.70
2010,07,17,17,06,22.70
2010,07,17,17,07,22.80
2010,07,17,17,08,22.80
2010,07,17,17,09,22.80
2010,07,17,17,10,22.70
2010,07,17,17,11,22.50
2010,07,17,17,12,22.30
2010,07,17,17,13,22.20
2010,07,17,17,14,22.20
2010,07,17,17,15,22.20
2010,07,17,17,16,22.20
2010,07,17,17,17,22.20
2010,07,17,17,18,22.20
2010,07,17,17,19,22.20
2010,07,17,17,20,22.20
2010,07,17,17,21,22.30
2010,07,17,17,22,22.30